(333397) = 2002 TJ113 = 2004 AV26

Discovered at Palomar on 2002-10-03 by NEAT.

Orbit

Orbit type: Main Belt

Note: WebGL enabled browser required.

epoch2023-09-13.0
epoch JD2460200.5
perihelion date2018-11-09.86535
perihelion JD2458432.36535
argument of perihelion (°)89.14302
ascending node (°)310.02054
inclination (°)9.99528
eccentricity0.1198843
perihelion distance (AU)2.6585756
Tisserand w.r.t. Jupiter3.2
ΔV w.r.t. Earth (km/sec)10.6
semimajor axis (AU)3.0207115
mean anomaly (°)331.93672
mean daily motion (°/day)0.18773270
aphelion distance (AU)3.383
period (years)5.25
P-vector [x]0.76372413
P-vector [y]0.50143597
P-vector [z]0.40655556
Q-vector [x]-0.63171014
Q-vector [y]0.71019979
Q-vector [z]0.31073873
absolute magnitude15.77
phase slope0.15
uncertainty0
referenceMPEC 2023-Y63
observations used375
oppositions13
arc length (days)7745
first opposition used2002
last opposition used2023
residual rms (arc-secs)0.68
perturbers coarse indicatorM-v
perturbers precise indicator003Ek
first observation date used2002-10-03.0
last observation date used2023-12-17.0
computer nameMPCLINUX
JD of orbit computation2456639.841374
perihelion JD uncertainty (days)2.5125E-04
argument of perihelion uncertainty (°)6.6376E-05
ascending node uncertainty (°)3.7925E-05
inclination uncertainty (°)8.0994E-06
eccentricity uncertainty 5.6722E-08
perihelion distance uncertainty (AU)1.7735E-07
Minimum Orbit Intersection Distances (in AU)
for orbit epoch: 2460200.5, reference: E2023-Y63
Mercury2.3429
Venus1.95682
Earth1.6891
Mars1.20448
Jupiter2.06909
Saturn6.17147
Uranus15.2258
Neptune27.1788

Observations

386 total observations over interval: 2002 10 03.30418 – 2023 12 17.121109
These data are available for download (format description).

Date (UT) J2000 RA J2000 Dec Magn Location Ref
2002 10 03.30418 00 19 42.71 +17 07 51.3 20.0   644 – Palomar Mountain/NEAT MPS 64037
2002 10 03.32544 00 19 41.57 +17 07 46.6 20.3   644 – Palomar Mountain/NEAT MPS 64037
2002 10 03.34651 00 19 40.45 +17 07 42.8 20.0   644 – Palomar Mountain/NEAT MPS 64037
2002 10 05.25445 00 18 03.65 +17 01 11.4 19.3   704 – Lincoln Laboratory ETS, New Mexico MPS 64037
2002 10 05.25456 00 18 03.59 +17 01 11.3 19.1   704 – Lincoln Laboratory ETS, New Mexico MPS 64037
2002 10 05.26999 00 18 02.83 +17 01 07.8 19.3   704 – Lincoln Laboratory ETS, New Mexico MPS 64037
2002 10 05.27011 00 18 02.75 +17 01 08.0 19.5   704 – Lincoln Laboratory ETS, New Mexico MPS 64037
2002 10 05.28558 00 18 01.97 +17 01 04.5 19.3   704 – Lincoln Laboratory ETS, New Mexico MPS 64037
2002 10 05.28570 00 18 01.93 +17 01 04.1 19.7   704 – Lincoln Laboratory ETS, New Mexico MPS 64037
2002 10 05.30112 00 18 01.15 +17 01 01.1 19.5   704 – Lincoln Laboratory ETS, New Mexico MPS 64037
2002 10 05.30124 00 18 01.16 +17 01 00.7 19.6   704 – Lincoln Laboratory ETS, New Mexico MPS 64037
2002 10 05.31667 00 18 00.36 +17 00 57.4 19.5   704 – Lincoln Laboratory ETS, New Mexico MPS 64037
2002 10 07.25078 00 16 23.36 +16 53 50.8 19.0 R 699 – Lowell Observatory-LONEOS MPS 64037
2002 10 07.27183 00 16 22.18 +16 53 47.7   699 – Lowell Observatory-LONEOS MPS 64037
2002 10 07.29284 00 16 21.07 +16 53 41.6   699 – Lowell Observatory-LONEOS MPS 64037
2002 10 07.31384 00 16 20.07 +16 53 37.3   699 – Lowell Observatory-LONEOS MPS 64037
2003 12 27.36109 08 21 19.10 +23 59 42.2 20.1   704 – Lincoln Laboratory ETS, New Mexico MPS 110704
2003 12 27.37486 08 21 18.49 +23 59 41.9 20.2   704 – Lincoln Laboratory ETS, New Mexico MPS 110704
2003 12 27.38788 08 21 17.85 +23 59 42.2 20.0   704 – Lincoln Laboratory ETS, New Mexico MPS 110704
2004 01 15.44522 08 04 12.44 +24 01 39.8 20.0 V 691 – Steward Observatory, Kitt Peak-Spacewatch MPS 109931
2004 01 15.47171 08 04 10.85 +24 01 39.5 19.9 V 691 – Steward Observatory, Kitt Peak-Spacewatch MPS 109931
2004 01 15.49872 08 04 09.21 +24 01 38.8 20.0 V 691 – Steward Observatory, Kitt Peak-Spacewatch MPS 109931
2004 01 20.30090 07 59 24.38 +24 00 05.5 19.1   704 – Lincoln Laboratory ETS, New Mexico MPS 109931
2004 01 20.31373 07 59 23.60 +24 00 04.9 19.4   704 – Lincoln Laboratory ETS, New Mexico MPS 109931
2004 01 20.32661 07 59 22.83 +24 00 04.3 19.7   704 – Lincoln Laboratory ETS, New Mexico MPS 109931
2004 01 27.35942 07 52 34.32 +23 55 21.7 20.2 V 691 – Steward Observatory, Kitt Peak-Spacewatch MPS 110704
2004 01 27.38826 07 52 32.66 +23 55 20.1 20.3 V 691 – Steward Observatory, Kitt Peak-Spacewatch MPS 110704
2004 01 27.41948 07 52 30.86 +23 55 18.3 20.3 V 691 – Steward Observatory, Kitt Peak-Spacewatch MPS 110704
2004 02 16.09405 07 37 12.48 +23 26 12.0 21.3 V 691 – Steward Observatory, Kitt Peak-Spacewatch MPS 110704
2004 02 16.12148 07 37 11.51 +23 26 08.7 20.7 V 691 – Steward Observatory, Kitt Peak-Spacewatch MPS 110704
2004 02 16.14850 07 37 10.55 +23 26 05.8 20.8 V 691 – Steward Observatory, Kitt Peak-Spacewatch MPS 110704
2007 08 16.26875 22 58 58.42 +01 14 21.3 19.9   704 – Lincoln Laboratory ETS, New Mexico MPS 213684
2007 08 16.29330 22 58 57.37 +01 14 22.9 20.2   704 – Lincoln Laboratory ETS, New Mexico MPS 213684
2007 08 16.30559 22 58 56.91 +01 14 22.0 20.2   704 – Lincoln Laboratory ETS, New Mexico MPS 213684
2007 08 16.31788 22 58 56.37 +01 14 23.1 20.0   704 – Lincoln Laboratory ETS, New Mexico MPS 213684
2007 09 07.23334 22 41 18.47 +00 50 12.5 19.1   704 – Lincoln Laboratory ETS, New Mexico MPS 215055
2007 09 07.24414 22 41 18.05 +00 50 11.9 19.2   704 – Lincoln Laboratory ETS, New Mexico MPS 215055
2007 09 07.25490 22 41 17.45 +00 50 10.8 19.2   704 – Lincoln Laboratory ETS, New Mexico MPS 215055
2007 09 07.26576 22 41 16.93 +00 50 08.1 18.8   704 – Lincoln Laboratory ETS, New Mexico MPS 215055
2007 09 08.31517 22 40 23.57 +00 47 51.2 19.2 R 699 – Lowell Observatory-LONEOS MPS 215055
2007 09 08.33707 22 40 22.55 +00 47 48.4   699 – Lowell Observatory-LONEOS MPS 215055
2007 09 08.35892 22 40 21.36 +00 47 44.3   699 – Lowell Observatory-LONEOS MPS 215055
2007 09 08.38083 22 40 20.27 +00 47 40.6   699 – Lowell Observatory-LONEOS MPS 215055
2007 09 11.24506 22 37 57.03 +00 41 09.1 19.5 V 703 – Catalina Sky Survey MPS 215055
2007 09 11.25222 22 37 56.60 +00 41 08.0 19.3 V 703 – Catalina Sky Survey MPS 215055
2007 09 11.25942 22 37 56.28 +00 41 06.8 19.5 V 703 – Catalina Sky Survey MPS 215055
2007 09 11.26661 22 37 55.92 +00 41 05.6 19.4 V 703 – Catalina Sky Survey MPS 215055
2007 09 11.95125 22 37 22.06 +00 39 27.2 19.0   586 – Pic du Midi MPS 215055
2007 09 11.95583 22 37 21.82 +00 39 27.0 18.7   586 – Pic du Midi MPS 215055
2007 09 11.96042 22 37 21.62 +00 39 25.9 18.7   586 – Pic du Midi MPS 215055
2007 09 14.18710 22 35 33.08 +00 34 02.2 19.7   704 – Lincoln Laboratory ETS, New Mexico MPS 216091
2007 09 14.19929 22 35 32.51 +00 33 58.8 19.7   704 – Lincoln Laboratory ETS, New Mexico MPS 216091
2007 09 14.21136 22 35 31.95 +00 33 56.6 20.4   704 – Lincoln Laboratory ETS, New Mexico MPS 216091
2007 09 14.22345 22 35 31.18 +00 33 54.3 19.8   704 – Lincoln Laboratory ETS, New Mexico MPS 216091
2007 09 14.23550 22 35 30.68 +00 33 53.5 20.2   704 – Lincoln Laboratory ETS, New Mexico MPS 216091
2007 09 15.23474 22 34 42.84 +00 31 23.7 19.4   704 – Lincoln Laboratory ETS, New Mexico MPS 216091
2007 09 15.24651 22 34 42.30 +00 31 22.5 19.7   704 – Lincoln Laboratory ETS, New Mexico MPS 216091
2007 09 15.28202 22 34 40.53 +00 31 16.7 19.6   704 – Lincoln Laboratory ETS, New Mexico MPS 216091
2007 09 17.18232 22 33 11.66 +00 26 26.2 19.3   704 – Lincoln Laboratory ETS, New Mexico MPS 216091
2007 09 17.19454 22 33 10.99 +00 26 25.4 19.6   704 – Lincoln Laboratory ETS, New Mexico MPS 216091
2007 09 17.20674 22 33 10.44 +00 26 22.6 19.4   704 – Lincoln Laboratory ETS, New Mexico MPS 216091
2007 09 17.21922 22 33 09.86 +00 26 20.5 19.6   704 – Lincoln Laboratory ETS, New Mexico MPS 216091
2010 03 13.474923 11 29 05.782 -07 44 56.84 20.44 r F51 – Pan-STARRS 1, Haleakala MPS 337290
2010 03 13.484665 11 29 05.277 -07 44 55.17 20.83 r F51 – Pan-STARRS 1, Haleakala MPS 337290
2010 03 15.31160 11 27 35.64 -07 38 56.6 19.1 V 703 – Catalina Sky Survey MPS 317849
2010 03 15.31795 11 27 35.38 -07 38 55.8 19.8 V 703 – Catalina Sky Survey MPS 317849
2010 03 15.32428 11 27 34.99 -07 38 54.2 19.7 V 703 – Catalina Sky Survey MPS 317849
2010 03 15.33065 11 27 34.70 -07 38 52.4 19.9 V 703 – Catalina Sky Survey MPS 317849
2012 06 12.29362 21 46 47.68 -14 11 54.9 19.5 J W91 – VHS-VISTA, Cerro Paranal MPS 678698
2012 06 12.29496 21 46 47.70 -14 11 54.8 20.2 J W91 – VHS-VISTA, Cerro Paranal MPS 678698
2012 06 12.29796 21 46 47.71 -14 11 54.3 19.8 Y W91 – VHS-VISTA, Cerro Paranal MPS 678698
2012 06 12.30012 21 46 47.74 -14 11 53.8 19.9 Y W91 – VHS-VISTA, Cerro Paranal MPS 678698
2012 07 18.32984 21 37 01.45 -13 18 08.9 19.9 V 703 – Catalina Sky Survey MPS 428337
2012 07 18.33794 21 37 01.09 -13 18 08.5 20.8 V 703 – Catalina Sky Survey MPS 428337
2012 07 18.34618 21 37 00.87 -13 18 08.5 20.3 V 703 – Catalina Sky Survey MPS 428337
2012 07 18.35442 21 37 00.40 -13 18 10.0 19.8 V 703 – Catalina Sky Survey MPS 428337
2012 07 28.47880 21 29 35.019 -13 20 37.59 20.2 g F51 – Pan-STARRS 1, Haleakala MPS 428913
2012 07 28.48974 21 29 34.467 -13 20 38.06 20.2 g F51 – Pan-STARRS 1, Haleakala MPS 428913
2012 07 29.48059 21 28 46.444 -13 21 09.14 19.5 i F51 – Pan-STARRS 1, Haleakala MPS 428913
2012 07 29.49196 21 28 45.865 -13 21 09.58 19.4 i F51 – Pan-STARRS 1, Haleakala MPS 428913
2012 08 10.23357 21 18 41.72 -13 29 32.1 19.1 G G45 – Space Surveillance Telescope, Atom Site MPS 1609640
2012 08 10.28435 21 18 38.91 -13 29 33.8 19.2 G G45 – Space Surveillance Telescope, Atom Site MPS 1609640
2012 08 10.35524 21 18 35.08 -13 29 37.7 19.6 G G45 – Space Surveillance Telescope, Atom Site MPS 1609640
2012 08 10.39711 21 18 32.78 -13 29 39.8 19.3 G G45 – Space Surveillance Telescope, Atom Site MPS 1609640
2012 08 12.58796 21 16 36.91 -13 31 23.4 19.2 V E12 – Siding Spring Survey MPS 430005
2012 08 12.60074 21 16 36.19 -13 31 24.1 19.1 V E12 – Siding Spring Survey MPS 430005
